sat.trackr.live / text

‹ back to catalog

STARLINK-37781

NORAD 69341 · 2026-122N

PAYLOAD ACTIVE UNKNOWN

§ Identity

Operator
Country
US
Launch date
2026-06-03
Launch site
AFWTR
Launch vehicle
Mass (kg)
RCS (m²)

Purposes: comms

External: N2YO · Heavens-Above · Gunter

§ Orbital elements

Epoch: 2026-09-19T22:35:52.844640Z

Period
93.91 min
Inclination
97.2848°
Eccentricity
0.0001095
Mean motion
15.33453952 rev/d
Perigee alt
464.8 km
Apogee alt
466.3 km
Semi-major
6,843.7 km
B*
3.4765e-4
RAAN
291.5647°
Arg perigee
87.7243°
Mean anomaly
272.4125°
Rev number
1,671

§ Raw data

STARLINK-377811 69341U 26122N   26262.94158385  .00011168  00000+0  34765-3 0  99912 69341  97.2848 291.5647 0001095  87.7243 272.4125 15.33453952 16711

JSON: /api/v1/satellites/69341 · /tle

For live sub-satellite position, see the globe view (requires WebGL).

§ Visibility from observer

Set your observer location to see the next 7 days of passes ≥ 10°. The values pass through the URL so the page stays shareable.

No JS? Fill the form by hand. The geolocation button needs JavaScript.